Погода в Змеиногорске

Погода в Змеиногорске : погода сейчас, прогноз погоды и архив. Всё, что Вы хотите узнать о погоде в Змеиногорске!

Хотите узнать прогноз погоды в Змеиногорске? Тогда Вам сюда: Погода в Змеиногорске

Поиск расширенной информации на нашем сайте:

Другие новости

Новости СМИ2

Главная страница сайта

Новости сайта

03.07.2017

Напоминаем, что на нашем специализированном сайте Метеоцентр.Азия вы можете получить высокодетализированные автоматические прогнозы погоды по пунктам России, СНГ и мира в авиационном формате (включающие направление и скорость ветра, видимость, явления погоды, количество и форму облачности, нижнюю и верхнюю границу облачности).


Погода в Змеиногорске - сегодня

Время (UTC), дата Ветер
(°,м/с) 
Видим.   Явления Облачность Т
(°С)
Тd
(°С)
f(%) Тe
(°С)
Pmin
(гПа)
dP
(гПа)
Po
(мм)
O2
(г/м3)
Тmin Tmax R s Состояние
почвы
00 19.04.18 050 (СВ) 20000 м    10/0 верхняя 
[Cc]
-6.1 -8.8 81 -6  1021.4  -2.1  732  303  -6.6         
03 19.04.18 070 (В) 2000 м  слаб. ливневой снег  10/10 600 м кучево-дожд. 
[Cb cap]
+0.9 -2.8 76 1017  -3  730  293           
06 19.04.18 170 (Ю) 20000 м  слаб. ливневой дождь  10/10 600 м кучево-дожд. 
[Cb cap]
+2.8 +0.4 84 +4  1013.8  -2.8  728  290           
09 19.04.18 140 (ЮВ) 4000 м  слаб. ливневой дождь  10/10 600 м кучево-дожд. 
[Cb cap]
+3.3 +1.5 88 +3  1012.6  -1  727  289           
12 19.04.18 140 (ЮВ) 4000 м  слаб. ливневой дождь  10/10 600 м кучево-дожд. 
[Cb cap]
+2.1 +0.5 89 +1  1013.8  0.9  728  291    +3.6     
15 19.04.18 210 (ЮЗ) 20000 м  слаб. ливневой дождь  10/10 600 м кучево-дожд. 
[Cb cap]
+3.5 +1.5 87 +2  1015.7  2.1  729  290           
18 19.04.18 330 (СЗ) 20000 м  {ливн. осадки}  10/10 200 м 
[Frnb]
-0.4 -2.1 88 -1  1020.6  732  296           
21 19.04.18 330 (СЗ) 10 км  слаб. ливневой снег  10/10 600 м кучево-дожд. 
[Cb cap]
-0.6 -1.9 91 1023.3  2.6  734  297           
00 20.04.18 тихо ()   20000 м  {ливн. осадки}  10/10 200 м 
[Frnb]
-0.8 -2.2 90 -1  1025.2  1.8  736  297  -0.9    0.9  <0.5  мокрый или
старый снег
50-90% 
03 20.04.18 150 (ЮВ) 20000 м    10/10 200 м 
[Frnb]
+0.9 -1.7 83 +2  1026.1  1.1  736  296           
06 20.04.18 190 (Ю) 20000 м    10/10 600 м кучево-дожд. 
[Cb cap]
+2.7 -1.8 72 +1  1025.7  -0.1  736  294           
09 20.04.18 180 (Ю) 20000 м    10/10 600 м кучево-дожд. 
[Cb cap]
+3.7 -2.3 65 +1  1025.1  -0.4  736  293           
12 20.04.18 200 (Ю) 20000 м    10/0 верхняя 
[Cs]
+6.1 -2.2 55 +5  1023.1  -1.6  735  290    +6.1       
15 20.04.18 170 (Ю) 20000 м    4/0 верхняя 
[Cs]
+1.7 -2.6 73 +1  1023.5  -0.3  735  294           
18 20.04.18 180 (Ю) 20000 м    ясно 
+0.6 -2.6 79 +1  1022.5  -1.1  734  295           
21 20.04.18 160 (Ю) 20000 м    6/0 верхняя 
[Cs]
+2.8 -3.5 63 +2  1021.8  -0.3  734  293           
00 21.04.18 150 (ЮВ) 20000 м    10/0 средняя, верхняя 
[Ac As|Ci]
+3.5 -3.9 58 +2  1021.4  -0.3  733  292  +0.6         
03 21.04.18 160 (Ю) 20000 м    9/0 средняя 
[Ac und]
+8.8 -3.2 43 +8  1021  0.4  734  287           
06 21.04.18 180 (Ю) 4{12}  20000 м    9/0 средняя 
[Ac As]
+12.6 -4 31 +12  1019.7  -0.7  733  283           
09 21.04.18 170 (Ю) 20000 м    10/0 средняя, верхняя 
[As trans|Ci]
+15.5 -5.3 23 +15  1017.3  -1.9  732  279           
12 21.04.18 170 (Ю) 20000 м    10/0 верхняя 
[Ci]
+15.7 -4.8 24 +16  1015.5  -1.7  730  279    +16.2       
15 21.04.18 150 (ЮВ) 20000 м    10/0 верхняя 
[Cs]
+7.2 -3 48 +7  1016.6  -0.1  730  287           
18 21.04.18 180 (Ю) 20000 м    10/0 верхняя 
[Cs]
+7.7 -6.5 36 +7  1015.9  -0.6  730  287           
21 21.04.18 170 (Ю) 20000 м    10/0 верхняя 
[Cs]
+7.9 -5.2 39 +7  1015  -0.9  729  286           
00 22.04.18 180 (Ю) 20000 м    10/0 верхняя 
[Cs]
+8.3 -5.3 38 +7  1014.3  -0.6  729  285  +6.9         
Время (UTC), дата Ветер
(°,м/с) 
Видим.   Явления Облачность Т
(°С)
Тd
(°С)
f(%) Тe
(°С)
Pmin
(гПа)
dP
(гПа)
Po
(мм)
O2
(г/м3)
Тmin Tmax R s Состояние
почвы

Для получения пояснительной информации подведите курсор к названию столбца.

ПОГОДА в Змеиногорске - архив

Всё, что Вы хотите узнать о погоде в Змеиногорске - удобно и подробно!

Выберите нужную дату (начиная с 1 января 2015* года) и нажмите кнопку "Найти".
Будут отображены архивные сводки погоды по пункту Змеиногорск, начиная с указанной даты.


Отображать данные в формате CSV (для использования в таблицах Excel)


Внимание! Наш архив погоды предназначен исключительно для личного некоммерческого использования в познавательных целях. Если Вам необходимы официальные справки о состоянии погоды (для производственных, юридических, коммерческих и т.п. целей), обращайтесь в органы Росгидромета.

*Примечание: данная дата относится к архиву по метеостанциям СССР (Россия, СНГ, Балтия).
Архив по метеостанциям Зарубежной Европы и Азии (кроме Китая) хранится 10 дней, по другим регионам земного шара (Китай, Африка, Америка, Австралия, Океания) - 1 день.

Змеиногорск - район местоположения метеостанции


Название, широта, долгота, высота метеостанции:
Змеиногорск 51.2°ш. 82.2°д. 355 м над ур. моря [Российская Федерация]

Дополнительная информация

В oтличие oт бoльшинства пoгoдных сайтoв мы публикуем пoдрoбную метеoинфoрмацию в детальнoм прoфессиoнальнoм фoрмате.

Характеристики температуры и влажнoсти вoздуха измеряются на высoте 2 м в тени вдали oт зданий и деревьев.
Скoрoсть ветра измеряется на высoте 10 м (на урoвне рoста челoвека скoрoсть ветра ниже в 1.5-2 раза). Если метеoстанция нахoдится в гoрoде или в лесу, тo скoрoсть ветра занижена на 2-4 м/с пo сравнению с oткрытым местoм. Скoрoсть ветра над акватoриями крупных рек и oзёр, а также на вершинах хoлмoв на 2-5 м/с выше, чем в oбычных услoвиях.
Атмoсфернoе давление в разных тoчках местнoсти мoжет значительнo oтличаться oт давления на метеoстанции, в зависимoсти oт услoвий рельефа (при пoдъёме на 10 м давление пoнижается примернo на 1 мм рт.ст.).